Tracking 19831 objects as of 24-Aug-2019
HD Live streaming from Space Station
objects crossing your sky now

COSMOS 2023 (GLONASS)

Track COSMOS 2023 (GLONASS) now!
COSMOS 2023 (GLONASS) is classified as:


NORAD ID: 20025
Int'l Code: 1989-039B
Perigee: 19,091.8 km
Apogee: 19,182.0 km
Inclination: 65.4 °
Period: 675.7 minutes
Semi major axis: 25507 km
RCS: 1.297 m2 (large)
Launch date: May 31, 1989
Source: Commonwealth of Independent States (former USSR) (CIS)
Launch site: TYURATAM MISSILE AND SPACE COMPLEX (TTMTR)
aabbcc
Your satellite tracking list
Your tracking list is empty




NASA's NSSDC Master Catalog

Two Line Element Set (TLE):
1 20025U 89039B   19234.80912046 -.00000014  00000-0  00000+0 0  9992
2 20025  65.4029  35.8327 0017690 199.6654 158.3058  2.13103959235258
Source of the keplerian elements: AFSPC